Hourly Weather Buraydah

Today, 1 October, Thursday

Time Temperature Precipitation Wind Pressure Humidity
00:00 +26°C° 0 mm 1 mps 703 mmHg 19%
01:00 +26°C° 0 mm 2 mps 702 mmHg 20%
02:00 +25°C° 0 mm 2 mps 702 mmHg 21%
03:00 +25°C° 0 mm 2 mps 702 mmHg 22%
04:00 +24°C° 0 mm 2 mps 703 mmHg 22%
05:00 +24°C° 0 mm 1 mps 703 mmHg 23%
06:00 +23°C° 0 mm 1 mps 703 mmHg 24%
07:00 +26°C° 0 mm 1 mps 704 mmHg 20%
08:00 +30°C° 0 mm 1 mps 705 mmHg 16%
09:00 +33°C° 0 mm 1 mps 705 mmHg 13%
10:00 +34°C° 0 mm 1 mps 706 mmHg 12%
11:00 +36°C° 0 mm 1 mps 706 mmHg 11%
12:00 +35°C° 0 mm 0 mps 706 mmHg 9%
13:00 +39°C° 0 mm 1 mps 705 mmHg 9%
14:00 +39°C° 0 mm 1 mps 704 mmHg 9%
15:00 +40°C° 0 mm 2 mps 704 mmHg 8%
16:00 +38°C° 0 mm 2 mps 704 mmHg 9%
17:00 +36°C° 0 mm 3 mps 704 mmHg 10%
18:00 +34°C° 0 mm 3 mps 704 mmHg 11%
19:00 +33°C° 0 mm 4 mps 704 mmHg 12%
20:00 +32°C° 0 mm 4 mps 704 mmHg 12%
21:00 +30°C° 0 mm 4 mps 705 mmHg 13%
22:00 +30°C° 0 mm 4 mps 705 mmHg 13%
23:00 +29°C° 0 mm 4 mps 705 mmHg 13%

Tomorrow, 2 October, Friday

Time Temperature Precipitation Wind Pressure Humidity
00:00 +29°C° 0 mm 4 mps 705 mmHg 14%
01:00 +28°C° 0 mm 4 mps 704 mmHg 14%
02:00 +27°C° 0 mm 4 mps 704 mmHg 15%
03:00 +27°C° 0 mm 4 mps 704 mmHg 16%
04:00 +26°C° 0 mm 3 mps 704 mmHg 17%
05:00 +26°C° 0 mm 3 mps 705 mmHg 18%
06:00 +25°C° 0 mm 3 mps 705 mmHg 19%
07:00 +28°C° 0 mm 2 mps 706 mmHg 16%
08:00 +30°C° 0 mm 2 mps 706 mmHg 14%
09:00 +34°C° 0 mm 2 mps 707 mmHg 11%
10:00 +35°C° 0 mm 1 mps 707 mmHg 10%
11:00 +37°C° 0 mm 1 mps 707 mmHg 9%
12:00 +39°C° 0 mm 1 mps 707 mmHg 8%
13:00 +40°C° 0 mm 2 mps 706 mmHg 8%
14:00 +40°C° 0 mm 3 mps 706 mmHg 8%
15:00 +42°C° 0 mm 4 mps 705 mmHg 8%
16:00 +38°C° 0 mm 3 mps 705 mmHg 9%
17:00 +36°C° 0 mm 3 mps 705 mmHg 10%
18:00 +34°C° 0 mm 3 mps 705 mmHg 11%
19:00 +34°C° 0 mm 3 mps 705 mmHg 12%
20:00 +33°C° 0 mm 3 mps 706 mmHg 12%
21:00 +32°C° 0 mm 4 mps 706 mmHg 13%
22:00 +30°C° 0 mm 4 mps 706 mmHg 14%
23:00 +29°C° 0 mm 4 mps 706 mmHg 15%

Day after tomorrow, 3 October, Saturday

Time Temperature Precipitation Wind Pressure Humidity
00:00 +28°C° 0 mm 4 mps 705 mmHg 15%
01:00 +28°C° 0 mm 4 mps 705 mmHg 16%
02:00 +28°C° 0 mm 4 mps 705 mmHg 16%
03:00 +27°C° 0 mm 4 mps 705 mmHg 17%
04:00 +26°C° 0 mm 3 mps 705 mmHg 19%
05:00 +24°C° 0 mm 2 mps 705 mmHg 21%
06:00 +23°C° 0 mm 1 mps 705 mmHg 24%
07:00 +26°C° 0 mm 1 mps 706 mmHg 20%
08:00 +29°C° 0 mm 1 mps 707 mmHg 17%
09:00 +34°C° 0 mm 2 mps 707 mmHg 13%
10:00 +34°C° 0 mm 1 mps 707 mmHg 12%
11:00 +36°C° 0 mm 1 mps 707 mmHg 10%
12:00 +39°C° 0 mm 1 mps 706 mmHg 9%
13:00 +40°C° 0 mm 2 mps 706 mmHg 8%
14:00 +40°C° 0 mm 2 mps 706 mmHg 8%
15:00 +42°C° 0 mm 3 mps 705 mmHg 8%
16:00 +39°C° 0 mm 3 mps 705 mmHg 9%
17:00 +37°C° 0 mm 3 mps 705 mmHg 10%
18:00 +35°C° 0 mm 3 mps 705 mmHg 12%
19:00 +34°C° 0 mm 4 mps 705 mmHg 12%
20:00 +33°C° 0 mm 4 mps 705 mmHg 13%
21:00 +32°C° 0 mm 4 mps 706 mmHg 14%
22:00 +32°C° 0 mm 4 mps 705 mmHg 15%
23:00 +30°C° 0 mm 4 mps 705 mmHg 16%

4 October, Sunday

Time Temperature Precipitation Wind Pressure Humidity
00:00 +29°C° 0 mm 4 mps 705 mmHg 17%
01:00 +29°C° 0 mm 4 mps 705 mmHg 18%
02:00 +29°C° 0 mm 4 mps 705 mmHg 19%
03:00 +28°C° 0 mm 4 mps 705 mmHg 19%
04:00 +27°C° 0 mm 4 mps 705 mmHg 21%
05:00 +26°C° 0 mm 3 mps 705 mmHg 23%
06:00 +25°C° 0 mm 3 mps 705 mmHg 24%
07:00 +28°C° 0 mm 2 mps 706 mmHg 21%
08:00 +30°C° 0 mm 2 mps 706 mmHg 18%
09:00 +34°C° 0 mm 2 mps 707 mmHg 15%
10:00 +35°C° 0 mm 2 mps 707 mmHg 13%
11:00 +37°C° 0 mm 2 mps 706 mmHg 11%
12:00 +39°C° 0 mm 2 mps 706 mmHg 9%
13:00 +40°C° 0 mm 2 mps 706 mmHg 9%
14:00 +40°C° 0 mm 1 mps 705 mmHg 8%
15:00 +41°C° 0 mm 1 mps 705 mmHg 8%
16:00 +38°C° 0 mm 2 mps 705 mmHg 9%
17:00 +36°C° 0 mm 2 mps 704 mmHg 11%
18:00 +34°C° 0 mm 2 mps 704 mmHg 12%
19:00 +34°C° 0 mm 3 mps 704 mmHg 12%
20:00 +34°C° 0 mm 4 mps 704 mmHg 12%
21:00 +34°C° 0 mm 5 mps 705 mmHg 13%
22:00 +33°C° 0 mm 5 mps 704 mmHg 13%
23:00 +32°C° 0 mm 5 mps 704 mmHg 14%

5 October, Monday

Time Temperature Precipitation Wind Pressure Humidity
00:00 +30°C° 0 mm 5 mps 704 mmHg 14%
01:00 +29°C° 0 mm 4 mps 704 mmHg 15%
02:00 +28°C° 0 mm 3 mps 703 mmHg 16%
03:00 +27°C° 0 mm 3 mps 703 mmHg 16%
04:00 +26°C° 0 mm 3 mps 703 mmHg 17%
05:00 +26°C° 0 mm 2 mps 704 mmHg 18%
06:00 +25°C° 0 mm 2 mps 704 mmHg 19%
07:00 +28°C° 0 mm 2 mps 704 mmHg 16%
08:00 +31°C° 0 mm 2 mps 705 mmHg 14%
09:00 +33°C° 0 mm 1 mps 706 mmHg 11%
10:00 +36°C° 0 mm 2 mps 706 mmHg 10%
11:00 +39°C° 0 mm 3 mps 705 mmHg 9%
12:00 +42°C° 0 mm 4 mps 705 mmHg 8%
13:00 +42°C° 0 mm 3 mps 705 mmHg 7%
14:00 +43°C° 0 mm 3 mps 704 mmHg 7%
15:00 +43°C° 0 mm 3 mps 704 mmHg 7%
16:00 +40°C° 0 mm 3 mps 703 mmHg 8%
17:00 +37°C° 0 mm 3 mps 703 mmHg 9%
18:00 +35°C° 0 mm 3 mps 702 mmHg 10%
19:00 +34°C° 0 mm 3 mps 703 mmHg 11%
20:00 +32°C° 0 mm 2 mps 703 mmHg 12%
21:00 +31°C° 0 mm 2 mps 703 mmHg 12%
22:00 +30°C° 0 mm 2 mps 703 mmHg 13%
23:00 +29°C° 0 mm 2 mps 703 mmHg 14%

6 October, Tuesday

Time Temperature Precipitation Wind Pressure Humidity
00:00 +27°C° 0 mm 2 mps 703 mmHg 15%
01:00 +27°C° 0 mm 2 mps 703 mmHg 16%
02:00 +27°C° 0 mm 2 mps 703 mmHg 17%
03:00 +26°C° 0 mm 3 mps 703 mmHg 17%
04:00 +25°C° 0 mm 2 mps 703 mmHg 18%
05:00 +25°C° 0 mm 2 mps 703 mmHg 19%
06:00 +24°C° 0 mm 2 mps 703 mmHg 20%
07:00 +27°C° 0 mm 2 mps 704 mmHg 17%
08:00 +29°C° 0 mm 2 mps 704 mmHg 15%
09:00 +32°C° 0 mm 2 mps 705 mmHg 12%
10:00 +36°C° 0 mm 2 mps 705 mmHg 11%
11:00 +38°C° 0 mm 3 mps 705 mmHg 9%
12:00 +40°C° 0 mm 3 mps 705 mmHg 8%
13:00 +42°C° 0 mm 3 mps 704 mmHg 7%
14:00 +42°C° 0 mm 4 mps 704 mmHg 7%
15:00 +43°C° 0 mm 4 mps 703 mmHg 7%
16:00 +40°C° 0 mm 4 mps 703 mmHg 8%
17:00 +37°C° 0 mm 3 mps 703 mmHg 9%
18:00 +35°C° 0 mm 3 mps 702 mmHg 10%
19:00 +34°C° 0 mm 3 mps 703 mmHg 11%
20:00 +31°C° 0 mm 3 mps 703 mmHg 12%
21:00 +30°C° 0 mm 3 mps 703 mmHg 13%
22:00 +30°C° 0 mm 3 mps 703 mmHg 13%
23:00 +29°C° 0 mm 3 mps 703 mmHg 13%
Show more

We Need Your Consent

Meteoprog and our Service Providers may store and access personal data such as cookies, device identifiers or other similar technologies on your device and process such data to personalise content and ads, as well as provide social media features and to analyse the traffic.

  • Store and/or access information on your device

    Cookies, device identifiers or other information can be stored or accessed on your device for the purposes indicated above.

  • Personalised ads and content, ad and content measurement, audience insights, and products development

    Ads and content can be personalised based on a profile. More data can be added to better personalise ads and content. Ad and content performance can be measured. Insights about the audience who saw the ads and content can be derived. Such data can be used to develop or improve user’s experience, systems and software.

By clicking ‘I Agree’ you will allow the use of indicated cookies, device identifiers, web beacons or other similar technologies. Your settings can be changed in the browser on your device.

For certain purposes, legitimate interests may be relied on, rather than consent. You can read more about this in our Privacy and Cookie Policy.